Flight Track Log - Related Links

Times and Time Zones

All times are in EDT time to prevent confusion due to time zone crossing. See the KAP502 flight status page for this flight to view local times or setup timezone preferences in your user account.

Time Position Orientation Groundspeed Altitude Reporting Facility
EDT Latitude Longitude Course Direction KTS MPH feet Rate Location/Type
Thu 07:00:14 AM 41.3469 -70.1119 10° North 116 133 3,000  Level Boston Center
Thu 07:00:44 AM 41.3561 -70.1097 325° Northwest 109 125 3,200 600 Climbing Boston TRACON (SMA)
Thu 07:01:04 AM 41.3664 -70.1192 323° Northwest 109 125 3,500 600 Climbing Boston TRACON (SMA)
Thu 07:01:24 AM 41.3714 -70.1242 325° Northwest 110 127 3,600 600 Climbing Boston TRACON (SMA)
Thu 07:01:44 AM 41.3817 -70.1339 327° Northwest 110 127 3,900 600 Climbing Boston TRACON (SMA)
Thu 07:02:04 AM 41.3931 -70.1439 330° Northwest 113 130 4,000  Climbing Boston TRACON (SMA)
Thu 07:02:23 AM 41.3989 -70.1483 329° Northwest 114 131 3,900 -154 Descending Boston TRACON (SMA)
Thu 07:02:43 AM 41.4119 -70.1589 328° Northwest 116 133 3,900  Level Boston TRACON (SMA)
Thu 07:03:03 AM 41.4258 -70.1703 331° Northwest 121 139 3,900  Level Boston TRACON (SMA)
Thu 07:03:23 AM 41.4331 -70.1758 329° Northwest 125 144 3,900 146 Level Boston TRACON (SMA)
Thu 07:03:44 AM 41.4478 -70.1875 325° Northwest 131 151 4,000  Climbing Boston TRACON (SMA)
Thu 07:04:04 AM 41.4606 -70.1994 325° Northwest 134 154 3,900 -154 Descending Boston TRACON (SMA)
Thu 07:04:23 AM 41.4675 -70.2058 325° Northwest 136 157 3,900  Level Boston TRACON (SMA)
Thu 07:04:44 AM 41.4806 -70.2181 324° Northwest 139 160 3,900  Level Boston TRACON (SMA)
Thu 07:05:04 AM 41.4933 -70.2306 322° Northwest 140 161 3,900  Level Boston TRACON (SMA)
Thu 07:05:24 AM 41.4994 -70.2369 325° Northwest 141 162 3,900  Level Boston TRACON (SMA)
Thu 07:05:44 AM 41.5125 -70.2492 329° Northwest 141 162 3,900  Level Boston TRACON (SMA)
Thu 07:06:04 AM 41.5264 -70.2603 327° Northwest 142 163 3,900  Level Boston TRACON (SMA)
Thu 07:06:24 AM 41.5331 -70.2661 330° Northwest 142 163 3,900  Level Boston TRACON (SMA)
Thu 07:06:44 AM 41.5469 -70.2767 328° Northwest 142 163 3,900  Level Boston TRACON (SMA)
Thu 07:07:04 AM 41.5614 -70.2886 327° Northwest 144 166 3,900  Level Boston TRACON (SMA)
Thu 07:07:24 AM 41.5717 -70.2975 326° Northwest 146 168 3,900  Level Boston TRACON (SMA)
Thu 07:07:44 AM 41.5817 -70.3064 327° Northwest 145 167 3,900  Level Boston TRACON (SMA)
Thu 07:08:04 AM 41.5958 -70.3186 301° West 147 169 3,900  Level Boston TRACON (SMA)
Thu 07:08:15 AM 41.6011 -70.3303 23° Northeast 147 169 3,900  Level Boston Center
Thu 07:08:24 AM 41.6061 -70.3275 327° Northwest 146 168 3,900  Level Boston TRACON (SMA)
Thu 07:08:44 AM 41.6164 -70.3364 328° Northwest 146 168 3,900  Level Boston TRACON (SMA)
Thu 07:09:04 AM 41.6300 -70.3478 328° Northwest 144 166 3,900  Level Boston TRACON (SMA)
Thu 07:09:24 AM 41.6403 -70.3564 330° Northwest 145 167 3,900  Level Boston TRACON (SMA)
Thu 07:09:44 AM 41.6517 -70.3653 327° Northwest 146 168 3,900  Level Boston TRACON (SMA)
Thu 07:10:04 AM 41.6647 -70.3764 325° Northwest 146 168 3,900  Level Boston TRACON (SMA)
Thu 07:10:24 AM 41.6747 -70.3858 328° Northwest 145 167 3,900  Level Boston TRACON (SMA)
Thu 07:10:44 AM 41.6858 -70.3950 328° Northwest 146 168 3,900  Level Boston TRACON (SMA)
Thu 07:11:04 AM 41.6994 -70.4064 325° Northwest 147 169 3,900  Level Boston TRACON (SMA)
Thu 07:11:24 AM 41.7092 -70.4156 325° Northwest 147 169 3,900  Level Boston TRACON (SMA)
Thu 07:11:44 AM 41.7197 -70.4253 325° Northwest 146 168 3,900  Level Boston TRACON (SMA)
Thu 07:12:04 AM 41.7333 -70.4381 302° West 149 171 3,900  Level Boston TRACON (SMA)
Thu 07:12:15 AM 41.7367 -70.4453 342° North 147 169 3,900  Level Boston Center
Thu 07:12:24 AM 41.7442 -70.4486 326° Northwest 148 170 3,900  Level Boston TRACON (SMA)
Thu 07:12:44 AM 41.7536 -70.4572 330° Northwest 146 168 3,900  Level Boston TRACON (SMA)
Thu 07:13:04 AM 41.7667 -70.4672 330° Northwest 144 166 3,900  Level Boston TRACON (SMA)
Thu 07:13:24 AM 41.7789 -70.4767 327° Northwest 146 168 3,900  Level Boston TRACON (SMA)
Thu 07:13:44 AM 41.7894 -70.4858 315° West 146 168 3,900  Level Boston TRACON (SMA)
Thu 07:14:03 AM 41.8000 -70.5000 56° Northeast 148 170 3,900  Level Boston TRACON
Thu 07:14:04 AM 41.8014 -70.4972 322° Northwest 147 169 3,900  Level Boston TRACON (SMA)
Thu 07:14:24 AM 41.8125 -70.5089 323° Northwest 147 169 3,900 -150 Level Boston TRACON (SMA)
Thu 07:14:44 AM 41.8228 -70.5194 322° Northwest 149 171 3,800  Descending Boston TRACON (SMA)
Thu 07:15:04 AM 41.8347 -70.5317 324° Northwest 150 173 3,900 150 Climbing Boston TRACON (SMA)
Thu 07:15:24 AM 41.8461 -70.5428 306° West 150 173 3,900  Level Boston TRACON (SMA)
Thu 07:15:27 AM 41.8500 -70.5500 348° North 150 173 3,900  Level Boston TRACON
Thu 07:15:43 AM 41.8564 -70.5519 328° Northwest 148 170 3,900  Level Boston TRACON (SMA)
Thu 07:16:03 AM 41.8686 -70.5622 329° Northwest 146 168 3,900  Level Boston TRACON (SMA)
Thu 07:16:23 AM 41.8806 -70.5719 330° Northwest 146 168 3,900  Level Boston TRACON (SMA)
Thu 07:16:43 AM 41.8928 -70.5814 330° Northwest 145 167 3,900  Level Boston TRACON (SMA)
Thu 07:17:03 AM 41.9039 -70.5900 330° Northwest 147 169 3,900  Level Boston TRACON (SMA)
Thu 07:17:21 AM 41.9167 -70.6000 320° Northwest 148 170 3,900  Level Boston TRACON
Thu 07:17:44 AM 41.9272 -70.6117 327° Northwest 147 169 3,900  Level Boston TRACON (SMA)
Thu 07:18:04 AM 41.9378 -70.6211 323° Northwest 146 168 3,900  Level Boston TRACON (SMA)
Thu 07:18:21 AM 41.9500 -70.6333 120° Southeast 146 168 3,900  Level Boston TRACON
Thu 07:18:24 AM 41.9492 -70.6314 325° Northwest 145 167 3,900  Level Boston TRACON (SMA)
Thu 07:18:44 AM 41.9603 -70.6419 323° Northwest 142 163 3,900  Level Boston TRACON (SMA)
Thu 07:19:04 AM 41.9700 -70.6517 320° Northwest 142 163 3,900  Level Boston TRACON (SMA)
Thu 07:19:21 AM 41.9833 -70.6667 129° Southeast 144 166 3,900  Level Boston TRACON
Thu 07:19:24 AM 41.9811 -70.6631 326° Northwest 142 163 3,900  Level Boston TRACON (SMA)
Thu 07:19:44 AM 41.9928 -70.6736 328° Northwest 143 165 3,900  Level Boston TRACON (SMA)
Thu 07:20:04 AM 42.0033 -70.6825 329° Northwest 144 166 3,900 -300 Level Boston TRACON (SMA)
Thu 07:20:24 AM 42.0158 -70.6928 329° Northwest 147 169 3,700 -450 Descending Boston TRACON (SMA)
Thu 07:20:44 AM 42.0283 -70.7031 326° Northwest 150 173 3,600 -450 Descending Boston TRACON (SMA)
Thu 07:21:04 AM 42.0397 -70.7136 326° Northwest 155 178 3,400 -600 Descending Boston TRACON (SMA)
Thu 07:21:24 AM 42.0531 -70.7256 296° West 158 182 3,200 -450 Descending Boston TRACON (SMA)
Thu 07:21:44 AM 42.0600 -70.7447 268° West 168 193 3,100 -300 Descending Boston TRACON (SMA)
Thu 07:22:04 AM 42.0594 -70.7644 236° Southwest 173 199 3,000 -387 Descending Boston TRACON (SMA)
Thu 07:22:15 AM 42.0500 -70.7833 329° Northwest 179 206 2,900 -316 Descending Boston TRACON
Thu 07:22:23 AM 42.0561 -70.7883 259° West 179 206 2,900  Level Boston TRACON (SMA)
Thu 07:22:44 AM 42.0528 -70.8106 256° West 180 207 2,900  Level Boston TRACON (SMA)
Thu 07:23:04 AM 42.0492 -70.8306 263° West 178 205 2,900  Level Boston TRACON (SMA)
Thu 07:23:24 AM 42.0469 -70.8544 294° West 178 205 2,900 -150 Level Boston TRACON (SMA)
Thu 07:23:44 AM 42.0531 -70.8731 307° West 167 192 2,800  Descending Boston TRACON (SMA)
Thu 07:24:04 AM 42.0611 -70.8872 301° West 158 182 2,900 194 Climbing Boston TRACON (SMA)
Thu 07:24:15 AM 42.0667 -70.9000 321° Northwest 155 178 2,900  Level Boston TRACON
Thu 07:24:24 AM 42.0703 -70.9039 306° West 153 176 2,900  Level Boston TRACON (SMA)
Thu 07:24:44 AM 42.0786 -70.9192 302° West 153 176 2,900  Level Boston TRACON (SMA)
Thu 07:25:04 AM 42.0867 -70.9364 323° Northwest 155 178 2,900  Level Boston TRACON (SMA)
Thu 07:25:15 AM 42.1000 -70.9500 186° South 155 178 2,900  Level Boston TRACON
Thu 07:25:23 AM 42.0939 -70.9508 303° West 154 177 2,900  Level Boston TRACON (SMA)
Thu 07:25:43 AM 42.1022 -70.9678 296° West 155 178 2,900  Level Boston TRACON (SMA)
Thu 07:26:03 AM 42.1086 -70.9858 308° West 155 178 2,900  Level Boston TRACON (SMA)
Thu 07:26:15 AM 42.1167 -71.0000 217° Southwest 161 185 2,900  Level Boston TRACON
Thu 07:26:23 AM 42.1131 -71.0036 290° West 160 184 2,900  Level Boston TRACON (SMA)
Thu 07:26:43 AM 42.1183 -71.0228 290° West 160 184 2,900 -150 Level Boston TRACON (SMA)
Thu 07:27:03 AM 42.1236 -71.0428 331° Northwest 161 185 2,800  Descending Boston TRACON (SMA)
Thu 07:27:15 AM 42.1333 -71.0500 237° Southwest 163 188 2,900 286 Climbing Boston TRACON
Thu 07:27:24 AM 42.1281 -71.0606 288° West 163 188 2,900  Level Boston TRACON (SMA)
Thu 07:27:44 AM 42.1328 -71.0803 314° West 160 184 2,900  Level Boston TRACON (SMA)
Thu 07:28:04 AM 42.1428 -71.0944 330° Northwest 162 186 2,900 -162 Level Boston TRACON (SMA)
Thu 07:28:21 AM 42.1500 -71.1000 33° Northeast 148 170 2,800  Descending Boston TRACON
Thu 07:28:24 AM 42.1550 -71.0956 360° North 148 170 2,900 261 Climbing Boston TRACON (SMA)
Thu 07:28:44 AM 42.1692 -71.0956 North 147 169 2,900  Level Boston TRACON (SMA)
Thu 07:29:04 AM 42.1831 -71.0931 21° North 146 168 2,900  Level Boston TRACON (SMA)
Thu 07:29:24 AM 42.1944 -71.0872 20° North 143 165 2,900  Level Boston TRACON (SMA)
Thu 07:29:44 AM 42.2075 -71.0806 20° North 143 165 2,900 -308 Level Boston TRACON (SMA)
Thu 07:30:03 AM 42.2203 -71.0744 16° North 142 163 2,700 -615 Descending Boston TRACON (SMA)
Thu 07:30:23 AM 42.2322 -71.0697 22° Northeast 143 165 2,500 -750 Descending Boston TRACON (SMA)
Thu 07:30:43 AM 42.2461 -71.0622 23° Northeast 150 173 2,200 -750 Descending Boston TRACON (SMA)
Thu 07:31:03 AM 42.2603 -71.0542 18° North 155 178 2,000 -750 Descending Boston TRACON (SMA)
Thu 07:31:23 AM 42.2753 -71.0475 19° North 160 184 1,700 -900 Descending Boston TRACON (SMA)
Thu 07:31:43 AM 42.2883 -71.0414 14° North 159 183 1,400 -732 Descending Boston TRACON (SMA)
Thu 07:32:04 AM 42.3022 -71.0367 North 156 180 1,200 -732 Descending Boston TRACON (SMA)
Thu 07:32:24 AM 42.3150 -71.0342 18° North 150 173 900 -900 Descending Boston TRACON (SMA)
Thu 07:32:44 AM 42.3283 -71.0283 18° North 140 161 600 -750 Descending Boston TRACON (SMA)
Thu 07:33:04 AM 42.3386 -71.0239 25° Northeast 130 150 400 -649 Descending Boston TRACON (SMA)
Thu 07:33:21 AM 42.3500 -71.0167 222° Southwest 116 133 200 -600 Descending Boston TRACON
Thu 07:33:24 AM 42.3475 -71.0197 222° Southwest 115 132 200  Level Boston TRACON (SMA)

Login

Don't have an account? Register now (free) for customized features, flight alerts, and more!